Regional Weather Roundup
Issued by NWS Burlington, VT

Current Version | Previous Version | Text Only | Print | Product List | Glossary Off
Versions: 1 2 3 4 5 6 7 8 9 10 11 12 13 14 15 16 17 18 19 20 21 22 23 24 25 26 27 28 29 30 31 32 33 34 35 36 37 38 39 40 41 42 43 44 45 46 47 48 49 50

000
ASUS41 KBTV 281330
RWRBTV
VERMONT REGIONAL WEATHER ROUNDUP
NATIONAL WEATHER SERVICE BURLINGTON VT
800 AM EST WED JAN 28 2015

NOTE: "FAIR" INDICATES FEW OR NO CLOUDS BELOW 12,000 FEET WITH NO
SIGNIFICANT WEATHER AND/OR OBSTRUCTIONS TO VISIBILITY.

* THESE REPORTS ARE NOT UNDER NWS QUALITY CONTROL AND/OR DO NOT
  REPORT WEATHER SUCH AS PRECIPITATION AND FOG.

VTZ001>019-281400-
_____VERMONT_____


CITY           SKY/WX    TMP DP  RH WIND       PRES   REMARKS
BURLINGTON     PTSUNNY    8  -1  66 N6        30.10R
MONTPELIER     CLOUDY     4  -2  76 NW8       29.99R
MORRISVILLE    CLOUDY     5  -3  69 N12       30.04R WCI -11
ST. JOHNSBURY*   N/A      7  -1  70 MISG      29.97R
MIDDLEBURY*    CLOUDY    10  -2  58 N10G17    30.05R WCI  -4
RUTLAND*       CLOUDY     7   1  78 NW10      30.01R WCI  -8
SPRINGFIELD    CLOUDY    11  -1  58 N12G18    29.96R WCI  -3
HIGHGATE*      CLOUDY     6  -1  72 CALM      30.12R
NEWPORT*       CLOUDY     4  -2  73 NW10      30.00R WCI -11
BENNINGTON     CLOUDY     8   0  69 N9        30.01R
SUTTON*          N/A      1 N/A N/A MISG        N/A
GALLUP MILLS*    N/A      3 N/A N/A MISG        N/A
UNION VILLAGE*   N/A      9 N/A N/A MISG        N/A
MT. MANSFIELD*   N/A     12 N/A N/A CALM        N/A

_____LAKE CHAMPLAIN_____


CITY           SKY/WX    TMP DP  RH WIND       PRES   REMARKS
BURTON ISLAND*   N/A      9   3  78 N2          N/A
COLCHESTER RF*   N/A     14   3  62 NE17        N/A  WCI  -3
DIAMOND ISL*     N/A     14   7  73 N18         N/A  WCI  -3

$$

NYZ007-026>031-035-052-083-281400-
_____NORTHERN NEW YORK_____


CITY           SKY/WX    TMP DP  RH WIND       PRES   REMARKS
PLATTSBURGH    CLOUDY     9  -4  55 NW6       30.11R
SARANAC LAKE   PTSUNNY    0  -7  72 SW5       29.98R
MASSENA        MOSUNNY    2  -8  63 W6        30.20R
OGDENSBURG*    SUNNY      3  -6  66 N5        30.20R
POTSDAM*       SUNNY     -4  -6  92 SW5       30.18R
STARK FALLS*     N/A      0 N/A N/A NW3         N/A
WATERTOWN        N/A    N/A N/A N/A MISG      30.21R
FT DRUM        PTSUNNY    1  -7  68 NW6       30.16R
ALBANY         PTSUNNY   11  -2  56 N14       30.08R WCI  -5
GLENS FALLS    CLOUDY     9   3  77 E5        30.08R

$$
NHZ002-005-011-281400-
_____NEW HAMPSHIRE_____


CITY           SKY/WX    TMP DP  RH WIND       PRES   REMARKS
LEBANON        CLOUDY    10   0  63 NW10      29.96R WCI  -4
KEENE          PTSUNNY   10   1  67 N12G20    29.95R VSB 3/4 WCI  -4
MT WASHINGTON  BLWGSNOW   1   1 100 N48G68      N/A  VSB 1/16WCI -29
PLYMOUTH       FAIR      10   5  78 W10       29.92R WCI  -3
WHITEFIELD     CLOUDY     7   0  73 N8        29.91R

$$

_____REGIONAL QUEBEC LOCATIONS_____


CITY           SKY/WX    TMP DP  RH WIND       PRES   REMARKS
MONTREAL       PTSUNNY    5  -6  61 W7        30.14R
QUEBEC CITY    PTSUNNY    9   5  85 SE2       30.03R
SHERBROOKE     FLURRIES   3   0  85 W7        30.00R

_____REGIONAL ONTARIO LOCATIONS_____


CITY           SKY/WX    TMP DP  RH WIND       PRES   REMARKS
OTTAWA         MOSUNNY    0 -11  60 W7        30.19R

______KEY______
VSB  - VISIBILITY IN MILES
WCI  - WIND CHILL INDEX
HX   - HEAT INDEX
$$
NNNN



USA.gov is the U.S. government's official web portal to all federal, state and local government web resources and services.